Home   Weather   Stephenville   Past weeks

Flag for Canada Past Weather in Stephenville, Newfoundland and Labrador, Canada — Yesterday and Last 2 Weeks

Now
34 °F

Clear.


Feels Like: 28 °F
Forecast: 29 / 38 °F
Wind: 7 mph from West

Location: Stephenville

Current Time: May 1, 2017 at 12:31:13 am

Latest Report: Apr 30, 2017 at 11:30 pm


Visibility: 15 mi

Pressure: 30.09 "Hg

Humidity: 70%

Dew Point: 25 °F

Location of StephenvilleLocation

Past Weather in Stephenville — Graph

°F

Stephenville Temperature Yesterday

Maximum temperature yesterday: 41 °F (at 10:30 am)
Minimum temperature yesterday: 36 °F (at 8:30 pm)
Average temperature yesterday: 39 °F

High & Low Weather Summary for the Past Weeks

 TemperatureHumidityPressure
High64 °F (Apr 28, 1:30 pm)100% (Apr 16, 9:30 pm)30.67 "Hg (Apr 16, 9:30 pm)
Low14 °F (Apr 19, 5:30 am)27% (Apr 21, 2:30 pm)29.58 "Hg (Apr 30, 1:30 am)
Average37 °F74%30.11 "Hg
* Reported Apr 15 10:30 pm — Apr 30 10:30 pm, Stephenville, Weather by CustomWeather, © 2017

Note: Actual official high and low records may vary slightly from our data, if they occured in-between our weather recording intervals... More about our weather records

Advertising

Stephenville Weather History for the Previous 24 Hours

Scroll right to see more
 ConditionsComfort  
Time TempWeatherWind HumidityBarometerVisibility
10:30 pm
Sun, Apr 30
36 °FClear.3 mph60%30.08 "Hg15 mi
9:30 pm36 °FPassing clouds.6 mph60%30.08 "Hg15 mi
8:30 pm36 °FPassing clouds.2 mph60%30.06 "Hg15 mi
7:30 pm37 °FPassing clouds.12 mph56%30.04 "Hg15 mi
6:30 pm39 °FPassing clouds.15 mph45%30.01 "Hg15 mi
5:30 pm41 °FSunny.12 mph49%30.00 "Hg15 mi
4:30 pm39 °FPassing clouds.17 mph52%29.99 "Hg15 mi
3:30 pm39 °FSunny.20 mph45%29.98 "Hg15 mi
2:30 pm41 °FPassing clouds.17 mph42%29.94 "Hg15 mi
1:30 pm39 °FScattered clouds.18 mph56%29.90 "Hg15 mi
12:30 pm41 °FBroken clouds.18 mph57%29.89 "Hg15 mi
11:30 am41 °FScattered clouds.16 mph61%29.88 "Hg15 mi
10:30 am41 °FPartly sunny.16 mph66%29.86 "Hg15 mi
9:30 am39 °FPartly sunny.14 mph81%29.81 "Hg15 mi
8:30 am39 °FPartly sunny.12 mph81%29.76 "Hg15 mi
7:30 am39 °FBroken clouds.13 mph87%29.68 "Hg15 mi
6:30 am39 °FPartly sunny.9 mph87%29.65 "Hg15 mi
5:30 am37 °FPassing clouds.3 mph93%29.62 "Hg15 mi
4:30 am39 °FPassing clouds.3 mph87%29.59 "Hg15 mi
3:30 am39 °FPassing clouds.12 mph93%29.59 "Hg12 mi
2:30 am39 °FLow clouds.14 mph100%29.59 "Hg10 mi
1:30 am39 °FSprinkles. Low clouds.7 mph100%29.58 "Hg12 mi
12:56 am39 °FSprinkles. Low clouds.5 mph100%29.60 "Hg5 mi
12:30 am39 °FSprinkles. Low clouds.5 mph100%29.60 "Hg3 mi
12:12 am39 °FSprinkles. Low clouds.7 mph100%29.60 "Hg3 mi
Weather by CustomWeather, © 2017

See weather overviewHow to use our weather pages